Hourly Data Report for September 07, 2020

SHEARWATER RCS
NOVA SCOTIA
Current Station Operator: ECCC - MSC

44°37'47.000" N
63°30'48.000" W
24.00 m
8205092
71264
AAW

Download Data

Hourly Data (September 2020)
Hourly Data Report for September 7, 2020
TIME Temp Definition
°C
Dew Point Definition
°C
Rel Hum Definition
%
Wind Dir Definition
10's deg

Wind Spd Definition
km/h
Visibility Definition
km
Stn Press Definition
kPa
Hmdx Definition


Wind Chill Definition


Weather Definition


00:00 13.8 12.6 93 19 3   102.10     LegendNANA
01:00 13.6 12.8 95 21 3   102.09     LegendNANA
02:00 13.1 12.4 96   0   102.09     LegendNANA
03:00 11.9 11.3 96 9 2   102.13     LegendNANA
04:00 12.6 12.0 97 11 4   102.19     LegendNANA
05:00 12.1 11.6 97 8 3   102.24     LegendNANA
06:00 12.6 12.1 97 9 5   102.22     LegendNANA
07:00 14.4 14.0 97 13 9   102.23     LegendNANA
08:00 15.0 14.5 97 12 8   102.19     LegendNANA
09:00 15.9 15.4 97 16 11   102.24     LegendNANA
10:00 16.6 15.4 92 15 12   102.29     LegendNANA
11:00 17.9 14.7 82 16 8   102.34     LegendNANA
12:00 19.2 14.8 76 17 7   102.32     LegendNANA
13:00 19.5 14.0 71 16 16   102.24     LegendNANA
14:00 19.9 14.1 69 15 15   102.17     LegendNANA
15:00 20.6 14.1 66 14 13   102.18     LegendNANA
16:00 20.3 12.9 62 15 12   102.14     LegendNANA
17:00 19.7 13.8 69 12 12   102.12     LegendNANA
18:00 18.6 14.9 79 10 10   102.10     LegendNANA
19:00 16.7 14.8 88 8 6   102.08     LegendNANA
20:00 16.3 15.0 92 5 6   102.16     LegendNANA
21:00 16.0 15.0 94 8 6   102.07     LegendNANA
22:00 16.7 15.8 94 11 4   102.05     LegendNANA
23:00 17.5 16.3 93 14 4   102.04     LegendNANA

Notes on Data Quality.

Legend

  • E = Estimated
  • M = Missing
  • NA = Not Available*
  • [empty] = Indicates an unobserved value
Date modified: